Skip Page Navigation
NASA JPL Caltech
NASA Logo - Jet Propulsion Laboratory + View the NASA Portal
+ Near-Earth Object (NEO) Program
Search JPL
JPL Home Earth Solar System Stars & Galaxies Technology
JPL Solar System Dynamics
BODIES ORBITS EPHEMERIDES TOOLS PHYSICAL DATA DISCOVERY FAQ SITE MAP
JPL Small-Body Database Browser
Search: [ help ]  
14492 Bistar (1994 VM6)
Classification: Main-belt Asteroid          SPK-ID: 2014492
Ephemeris | Orbit Diagram | Orbital Elements | Physical Parameters | Discovery Circumstances ]

[ hide orbit diagram ]
Orbit Diagram
Note: Make sure you have Java enabled on your browser to see the applet. This applet is provided as a 3D orbit visualization tool. The applet was implemented using 2-body methods, and hence should not be used for determining accurate long-term trajectories (over several years or decades) or planetary encounter circumstances. For accurate long-term ephemerides, please instead use our Horizons system.

Note: If the applet has stopped working because of a recent Java upgrade, here is a possible workaround.
Orbit Viewer

Additional Notes: the orbits shown in the applet are color coded. The planets are white lines, and the asteroid/comet is a blue line. The bright white line indicates the portion of the orbit that is above the ecliptic plane, and the darker portion is below the ecliptic plane. Likewise for the asteroid/comet orbit, the light blue indicates the portion above the ecliptic plane, and the dark blue the portion below the ecliptic plane.

Orbit Viewer applet originally written and kindly provided by Osamu Ajiki (AstroArts), and further modified by Ron Baalke (JPL).


Orbital Elements at Epoch 2457000.5 (2014-Dec-09.0) TDB
Reference: JPL 12 (heliocentric ecliptic J2000)
 Element Value Uncertainty (1-sigma)   Units 
e .2475537068910257 7.061e-08  
a 2.741850677360087 2.1502e-08 AU
q 2.063095378437928 1.9324e-07 AU
i 7.301940725676651 6.3491e-06 deg
node 239.6200989101665 5.3192e-05 deg
peri 143.8189859345201 5.4279e-05 deg
M 166.7156321010859 1.2348e-05 deg
tp 2456232.541152334854
(2012-Nov-01.04115233)
5.3138e-05 JED
period 1658.303913527565
4.54
1.9507e-05
5.341e-08
d
yr
n .2170892784267772 2.5537e-09 deg/d
Q 3.420605976282245 2.6825e-08 AU
  Orbit Determination Parameters
   # obs. used (total)      745  
   data-arc span      8476 days (23.21 yr)  
   first obs. used      1991-02-08  
   last obs. used      2014-04-24  
   planetary ephem.      DE431  
   SB-pert. ephem.      SB431-BIG16  
   condition code      0  
   fit RMS      .50381  
   data source      ORB  
   producer      Otto Matic  
   solution date      2014-Oct-09 14:27:49  

Additional Information
 Earth MOID = 1.07224 AU 
 T_jup = 3.293 
[ show covariance matrix ]

Ephemeris | Orbit Diagram | Orbital Elements | Physical Parameters | Discovery Circumstances ]

Physical Parameter Table
Parameter Symbol Value Units Sigma Reference Notes
absolute magnitude H 13.7 mag n/a MPO256970  

14492 Bistar           Discovered 1994 Nov. 4 by K. Endate and K. Watanabe at Kitami.
Bistar is the name of the astronomical observatory at Hanadate Nature Park in Hitachiomiya city, Ibaraki prefecture. Volunteers conduct stargazing parties at the observatory. In addition, the Mt. Hanadate Star Festival has been held there each summer since 1991.
NOTE: some special characters may not display properly (any characters within {} are an attempt to place the proper accent above a character)
Reference: 20100330/MPCPages.arcLast Updated: 2010-04-05

Alternate Designations
 1994 VM6 = 1971 QQ1 = 1971 SE4 = 2000 AH118 
Ephemeris | Orbit Diagram | Orbital Elements | Physical Parameters | Discovery Circumstances ]
ABOUT SSD CREDITS/AWARDS PRIVACY/COPYRIGHT GLOSSARY LINKS
FirstGov 2014-Oct-25 13:27 UT
(server date/time)  
NASA Home Page
Site Manager:   Donald K. Yeomans
Webmaster  Alan B. Chamberlin